sat.trackr.live / text

‹ back to catalog

STARLINK-37003

NORAD 68170 · 2026-050D

PAYLOAD ACTIVE UNKNOWN

§ Identity

Operator
Country
US
Launch date
2026-03-14
Launch site
AFETR
Launch vehicle
Mass (kg)
RCS (m²)

Purposes: comms

External: N2YO · Heavens-Above · Gunter

§ Orbital elements

Epoch: 2026-05-24T15:15:07.689024Z

Period
93.58 min
Inclination
53.1584°
Eccentricity
0.0001170
Mean motion
15.38837634 rev/d
Perigee alt
448.7 km
Apogee alt
450.3 km
Semi-major
6,827.7 km
B*
7.1067e-4
RAAN
273.7969°
Arg perigee
64.6499°
Mean anomaly
295.4627°
Rev number
1,231

§ Raw data

STARLINK-370031 68170U 26050D   26144.63550566  .00027410  00000+0  71067-3 0  99952 68170  53.1584 273.7969 0001170  64.6499 295.4627 15.38837634 12310

JSON: /api/v1/satellites/68170 · /tle

For live sub-satellite position, see the globe view (requires WebGL).

§ Visibility from observer

Set your observer location to see the next 7 days of passes ≥ 10°. The values pass through the URL so the page stays shareable.

No JS? Fill the form by hand. The geolocation button needs JavaScript.